APSTAR-9

Last updated on Sat Jul 05 2025 00:02:46 GMT+0000 (Coordinated Universal Time)

1 40982U 15059A 25185.63744691 -.00000252 00000+0 00000+0 0 9992 2 40982 0.0168 19.5808 0001883 124.8256 149.9378 1.00269579 35636
UTC large
Height (km)
Speed (km/s)
/
Latitude / Longitude
Inclination (degrees)
Orbital Period (minutes)
Azimuth
Elevation
Range (km)
Doppler Factor

Next 0 passes for location: London (51.5072 / 0.1276)

Sorry there are no passes over London.